| time (UTC) | temp C | wind direction | speed KPH | gust KPH | rain 1hr cm | rain 24hr cm | rain mn cm | humidity % | barometer mb |
| 20260505234552 | 24 | 199 | 3.2 | 11.3 | 0.00 | 0.00 | 0.00 | 44 | 1013.6 |
| 20260505234103 | 24 | 183 | 1.6 | 4.8 | 0.00 | 0.00 | 0.00 | 43 | 1013.7 |
| 20260505233550 | 24 | 154 | 1.6 | 9.7 | 0.00 | 0.00 | 0.00 | 43 | 1013.7 |
| 20260505233059 | 24 | 178 | 3.2 | 9.7 | 0.00 | 0.00 | 0.00 | 43 | 1013.7 |
| 20260505232603 | 24 | 161 | 3.2 | 8.0 | 0.00 | 0.00 | 0.00 | 43 | 1013.7 |
| 20260505232051 | 25 | 165 | 1.6 | 12.9 | 0.00 | 0.00 | 0.00 | 43 | 1013.5 |
| 20260505231557 | 25 | 197 | 6.4 | 14.5 | 0.00 | 0.00 | 0.00 | 42 | 1013.5 |
| 20260505231048 | 25 | 245 | 6.4 | 14.5 | 0.00 | 0.00 | 0.00 | 42 | 1013.3 |
| 20260505230555 | 25 | 184 | 4.8 | 11.3 | 0.00 | 0.00 | 0.00 | 41 | 1013.4 |
| 20260505230106 | 25 | 199 | 3.2 | 12.9 | 0.00 | 0.00 | 0.00 | 40 | 1013.3 |
| 20260505225551 | 25 | 199 | 6.4 | 12.9 | 0.00 | 0.00 | 0.00 | 40 | 1013.4 |
| 20260505225041 | 25 | 231 | 4.8 | 12.9 | 0.00 | 0.00 | 0.00 | 40 | 1013.3 |
| 20260505224554 | 25 | 172 | 4.8 | 12.9 | 0.00 | 0.00 | 0.00 | 40 | 1013.3 |
| 20260505224041 | 25 | 158 | 4.8 | 12.9 | 0.00 | 0.00 | 0.00 | 39 | 1013.3 |
| 20260505223551 | 25 | 216 | 6.4 | 12.9 | 0.00 | 0.00 | 0.00 | 39 | 1013.3 |
| 20260505222551 | 25 | 164 | 6.4 | 20.9 | 0.00 | 0.00 | 0.00 | 40 | 1013.1 |
| 20260505222058 | 25 | 188 | 8.0 | 20.9 | 0.00 | 0.00 | 0.00 | 40 | 1013.1 |
| 20260505221548 | 26 | 187 | 4.8 | 14.5 | 0.00 | 0.00 | 0.00 | 40 | 1013.1 |
| 20260505221058 | 26 | 117 | 8.0 | 12.9 | 0.00 | 0.00 | 0.00 | 39 | 1013.1 |
| 20260505220547 | 26 | 205 | 4.8 | 12.9 | 0.00 | 0.00 | 0.00 | 39 | 1013.0 |
| 20260505220056 | 26 | 65 | 6.4 | 12.9 | 0.00 | 0.00 | 0.00 | 37 | 1013.1 |
| 20260505215054 | 26 | 160 | 4.8 | 14.5 | 0.00 | 0.00 | 0.00 | 38 | 1013.2 |
| 20260505214602 | 26 | 203 | 4.8 | 16.1 | 0.00 | 0.00 | 0.00 | 39 | 1013.3 |
| 20260505214051 | 26 | 86 | 4.8 | 9.7 | 0.00 | 0.00 | 0.00 | 38 | 1013.3 |
| 20260505213558 | 26 | 157 | 3.2 | 12.9 | 0.00 | 0.00 | 0.00 | 38 | 1013.4 |
| 20260505213102 | 26 | 165 | 4.8 | 16.1 | 0.00 | 0.00 | 0.00 | 38 | 1013.2 |
| 20260505212102 | 26 | 156 | 4.8 | 11.3 | 0.00 | 0.00 | 0.00 | 40 | 1013.2 |
| 20260505211550 | 26 | 177 | 4.8 | 14.5 | 0.00 | 0.00 | 0.00 | 41 | 1013.4 |
| 20260505211057 | 26 | 139 | 8.0 | 14.5 | 0.00 | 0.00 | 0.00 | 41 | 1013.5 |
| 20260505210548 | 26 | 204 | 4.8 | 14.5 | 0.00 | 0.00 | 0.00 | 40 | 1013.4 |
| 20260505210125 | 26 | 129 | 3.2 | 14.5 | 0.00 | 0.00 | 0.00 | 40 | 1013.4 |
| 20260505210018 | 25 | 106 | 1.6 | 14.5 | 0.00 | 0.00 | 0.00 | 40 | 1012.5 |
| 20260505205547 | 26 | 174 | 6.4 | 12.9 | 0.00 | 0.00 | 0.00 | 41 | 1013.5 |
| 20260505205056 | 26 | 174 | 4.8 | 9.7 | 0.00 | 0.00 | 0.00 | 40 | 1013.5 |
| 20260505204544 | 26 | 176 | 3.2 | 16.1 | 0.00 | 0.00 | 0.00 | 41 | 1013.7 |
| 20260505204056 | 26 | 155 | 3.2 | 16.1 | 0.00 | 0.00 | 0.00 | 41 | 1013.8 |
| 20260505203052 | 26 | 162 | 6.4 | 12.9 | 0.00 | 0.00 | 0.00 | 42 | 1014.0 |
| 20260505202556 | 26 | 198 | 8.0 | 16.1 | 0.00 | 0.00 | 0.00 | 41 | 1014.0 |
| 20260505202047 | 25 | 181 | 4.8 | 19.3 | 0.00 | 0.00 | 0.00 | 40 | 1014.0 |
| 20260505201555 | 25 | 259 | 8.0 | 19.3 | 0.00 | 0.00 | 0.00 | 41 | 1014.1 |
| 20260505201101 | 25 | 215 | 6.4 | 12.9 | 0.00 | 0.00 | 0.00 | 41 | 1014.1 |
| 20260505200547 | 25 | 169 | 4.8 | 11.3 | 0.00 | 0.00 | 0.00 | 41 | 1014.1 |
| 20260505200057 | 25 | 169 | 4.8 | 16.1 | 0.00 | 0.00 | 0.00 | 41 | 1014.2 |
| 20260505195601 | 25 | 206 | 8.0 | 16.1 | 0.00 | 0.00 | 0.00 | 40 | 1014.3 |
| 20260505195050 | 25 | 165 | 4.8 | 19.3 | 0.00 | 0.00 | 0.00 | 40 | 1014.4 |
| 20260505194602 | 25 | 195 | 6.4 | 19.3 | 0.00 | 0.00 | 0.00 | 40 | 1014.6 |
| 20260505194054 | 25 | 248 | 6.4 | 12.9 | 0.00 | 0.00 | 0.00 | 44 | 1014.6 |
| 20260505193600 | 25 | 151 | 4.8 | 14.5 | 0.00 | 0.00 | 0.00 | 43 | 1014.6 |
| 20260505193050 | 25 | 156 | 8.0 | 14.5 | 0.00 | 0.00 | 0.00 | 43 | 1014.6 |
| 20260505192554 | 25 | 183 | 4.8 | 14.5 | 0.00 | 0.00 | 0.00 | 42 | 1014.6 |
| 20260505191551 | 25 | 228 | 6.4 | 11.3 | 0.00 | 0.00 | 0.00 | 43 | 1014.7 |
| 20260505191058 | 25 | 198 | 1.6 | 14.5 | 0.00 | 0.00 | 0.00 | 44 | 1014.6 |
| 20260505190606 | 25 | 182 | 4.8 | 14.5 | 0.00 | 0.00 | 0.00 | 44 | 1014.9 |
| 20260505190047 | 25 | 127 | 6.4 | 14.5 | 0.00 | 0.00 | 0.00 | 42 | 1015.0 |
| 20260505185554 | 25 | 181 | 4.8 | 12.9 | 0.00 | 0.00 | 0.00 | 44 | 1014.9 |
| 20260505185103 | 25 | 78 | 3.2 | 12.9 | 0.00 | 0.00 | 0.00 | 45 | 1015.1 |
| 20260505184103 | 24 | 236 | 4.8 | 16.1 | 0.00 | 0.00 | 0.00 | 45 | 1015.2 |
| 20260505183552 | 24 | 190 | 1.6 | 12.9 | 0.00 | 0.00 | 0.00 | 46 | 1015.2 |
| 20260505182055 | 25 | 263 | 4.8 | 16.1 | 0.00 | 0.00 | 0.00 | 43 | 1015.4 |
| 20260505181606 | 25 | 184 | 6.4 | 16.1 | 0.00 | 0.00 | 0.00 | 45 | 1015.6 |
| 20260505181502 | 25 | 203 | 4.8 | 16.1 | 0.00 | 0.00 | 0.00 | 45 | 1014.8 |
| 20260505180602 | 25 | 175 | 8.0 | 14.5 | 0.00 | 0.00 | 0.00 | 44 | 1015.9 |
| 20260505180050 | 24 | 173 | 6.4 | 14.5 | 0.00 | 0.00 | 0.00 | 44 | 1015.9 |
| 20260505175550 | 24 | 203 | 4.8 | 14.5 | 0.00 | 0.00 | 0.00 | 45 | 1016.1 |
| 20260505175059 | 24 | 227 | 6.4 | 14.5 | 0.00 | 0.00 | 0.00 | 45 | 1016.2 |
| 20260505174547 | 24 | 139 | 6.4 | 12.9 | 0.00 | 0.00 | 0.00 | 46 | 1016.3 |
| 20260505174058 | 24 | 170 | 4.8 | 12.9 | 0.00 | 0.00 | 0.00 | 45 | 1016.4 |
| 20260505173548 | 24 | 112 | 8.0 | 14.5 | 0.00 | 0.00 | 0.00 | 44 | 1016.3 |
| 20260505173058 | 24 | 198 | 6.4 | 17.7 | 0.00 | 0.00 | 0.00 | 45 | 1016.3 |
| 20260505172544 | 24 | 212 | 8.0 | 17.7 | 0.00 | 0.00 | 0.00 | 43 | 1016.3 |
| 20260505171604 | 23 | 210 | 8.0 | 16.1 | 0.00 | 0.00 | 0.00 | 45 | 1016.3 |
| 20260505171055 | 23 | 240 | 4.8 | 17.7 | 0.00 | 0.00 | 0.00 | 48 | 1016.3 |
| 20260505170600 | 23 | 165 | 8.0 | 17.7 | 0.00 | 0.00 | 0.00 | 45 | 1016.4 |
| 20260505170119 | 24 | 117 | 6.4 | 17.7 | 0.00 | 0.00 | 0.00 | 47 | 1016.5 |
| 20260505165601 | 24 | 202 | 6.4 | 19.3 | 0.00 | 0.00 | 0.00 | 48 | 1016.5 |
| 20260505165053 | 24 | 236 | 6.4 | 19.3 | 0.00 | 0.00 | 0.00 | 47 | 1016.4 |
| 20260505164544 | 24 | 225 | 6.4 | 16.1 | 0.00 | 0.00 | 0.00 | 47 | 1016.4 |
| 20260505164052 | 23 | 186 | 3.2 | 17.7 | 0.00 | 0.00 | 0.00 | 49 | 1016.4 |
| 20260505163544 | 23 | 171 | 4.8 | 20.9 | 0.00 | 0.00 | 0.00 | 47 | 1016.4 |
| 20260505163055 | 23 | 237 | 6.4 | 20.9 | 0.00 | 0.00 | 0.00 | 48 | 1016.5 |
| 20260505162601 | 23 | 217 | 6.4 | 17.7 | 0.00 | 0.00 | 0.00 | 49 | 1016.4 |
| 20260505162050 | 23 | 185 | 4.8 | 14.5 | 0.00 | 0.00 | 0.00 | 50 | 1016.5 |
| 20260505161055 | 23 | 115 | 8.0 | 16.1 | 0.00 | 0.00 | 0.00 | 48 | 1016.6 |
| 20260505160549 | 23 | 113 | 6.4 | 12.9 | 0.00 | 0.00 | 0.00 | 52 | 1016.6 |
| 20260505153059 | 22 | 158 | 6.4 | 16.1 | 0.00 | 0.00 | 0.00 | 53 | 1017.1 |
| 20260505152546 | 22 | 224 | 8.0 | 12.9 | 0.00 | 0.00 | 0.00 | 56 | 1017.0 |
| 20260505151544 | 22 | 88 | 3.2 | 12.9 | 0.00 | 0.00 | 0.00 | 57 | 1016.9 |
| 20260505151054 | 22 | 151 | 4.8 | 14.5 | 0.00 | 0.00 | 0.00 | 57 | 1016.9 |
| 20260505150544 | 21 | 207 | 6.4 | 14.5 | 0.00 | 0.00 | 0.00 | 58 | 1016.9 |
| 20260505124602 | 13 | 30 | 0.0 | 1.6 | 0.00 | 0.00 | 0.00 | 84 | 1015.8 |
| 20260505123600 | 13 | 30 | 0.0 | 0.0 | 0.00 | 0.00 | 0.00 | 84 | 1015.6 |
| 20260505123104 | 13 | 30 | 0.0 | 0.0 | 0.00 | 0.00 | 0.00 | 85 | 1015.6 |
| 20260505122552 | 13 | 30 | 0.0 | 0.0 | 0.00 | 0.00 | 0.00 | 85 | 1015.6 |
| 20260505122103 | 12 | 30 | 0.0 | 1.6 | 0.00 | 0.00 | 0.00 | 85 | 1015.6 |
| 20260505121550 | 12 | 30 | 0.0 | 1.6 | 0.00 | 0.00 | 0.00 | 85 | 1015.8 |
| 20260505121057 | 12 | 149 | 0.0 | 1.6 | 0.00 | 0.00 | 0.00 | 86 | 1015.8 |
| 20260505120543 | 12 | 149 | 0.0 | 0.0 | 0.00 | 0.00 | 0.00 | 86 | 1015.7 |
| 20260505120053 | 11 | 149 | 0.0 | 0.0 | 0.00 | 0.00 | 0.00 | 86 | 1015.5 |
| 20260505115555 | 11 | 149 | 0.0 | 0.0 | 0.00 | 0.00 | 0.00 | 86 | 1015.5 |
| 20260505115102 | 11 | 149 | 0.0 | 0.0 | 0.00 | 0.00 | 0.00 | 86 | 1015.4 |
| 20260505114550 | 11 | 149 | 0.0 | 0.0 | 0.00 | 0.00 | 0.00 | 86 | 1015.2 |
| 20260505114059 | 11 | 149 | 0.0 | 0.0 | 0.00 | 0.00 | 0.00 | 86 | 1015.1 |
| 20260505113103 | 11 | 149 | 0.0 | 0.0 | 0.00 | 0.00 | 0.00 | 86 | 1015.1 |
| 20260505112550 | 10 | 149 | 0.0 | 0.0 | 0.00 | 0.00 | 0.00 | 86 | 1015.1 |
| 20260505111546 | 10 | 149 | 0.0 | 0.0 | 0.00 | 0.00 | 0.00 | 86 | 1015.2 |
| 20260505111057 | 10 | 149 | 0.0 | 1.6 | 0.00 | 0.00 | 0.00 | 87 | 1015.1 |
| 20260505110603 | 10 | 149 | 0.0 | 1.6 | 0.00 | 0.00 | 0.00 | 87 | 1015.1 |
| 20260505110517 | 10 | 149 | 0.0 | 1.6 | 0.00 | 0.00 | 0.00 | 87 | 1014.5 |
| 20260505110123 | 10 | 149 | 0.0 | 0.0 | 0.00 | 0.00 | 0.00 | 87 | 1015.2 |
| 20260505102056 | 10 | 149 | 0.0 | 1.6 | 0.00 | 0.00 | 0.00 | 85 | 1015.1 |
| 20260505101549 | 10 | 149 | 0.0 | 0.0 | 0.00 | 0.00 | 0.00 | 84 | 1015.0 |
| 20260505101059 | 10 | 149 | 0.0 | 0.0 | 0.00 | 0.00 | 0.00 | 84 | 1015.0 |
| 20260505100549 | 10 | 149 | 0.0 | 3.2 | 0.00 | 0.00 | 0.00 | 84 | 1015.1 |
| 20260505095547 | 10 | 149 | 1.6 | 3.2 | 0.00 | 0.00 | 0.00 | 84 | 1014.9 |
| 20260505095058 | 10 | 149 | 0.0 | 3.2 | 0.00 | 0.00 | 0.00 | 84 | 1014.9 |
| 20260505093549 | 11 | 149 | 0.0 | 3.2 | 0.00 | 0.00 | 0.00 | 83 | 1014.9 |
| 20260505092602 | 11 | 149 | 0.0 | 1.6 | 0.00 | 0.00 | 0.00 | 82 | 1015.1 |
| 20260505092051 | 11 | 149 | 0.0 | 3.2 | 0.00 | 0.00 | 0.00 | 82 | 1015.2 |
| 20260505091558 | 11 | 149 | 0.0 | 3.2 | 0.00 | 0.00 | 0.00 | 82 | 1015.2 |
| 20260505090601 | 11 | 149 | 0.0 | 3.2 | 0.00 | 0.00 | 0.00 | 81 | 1015.3 |
| 20260505090051 | 11 | 149 | 0.0 | 3.2 | 0.00 | 0.00 | 0.00 | 80 | 1015.4 |
| 20260505085558 | 11 | 149 | 0.0 | 1.6 | 0.00 | 0.00 | 0.00 | 81 | 1015.4 |
| 20260505085047 | 11 | 149 | 0.0 | 1.6 | 0.00 | 0.00 | 0.00 | 80 | 1015.4 |
| 20260505084556 | 11 | 149 | 0.0 | 1.6 | 0.00 | 0.00 | 0.00 | 79 | 1015.5 |
| 20260505084103 | 12 | 149 | 0.0 | 3.2 | 0.00 | 0.00 | 0.00 | 79 | 1015.4 |
| 20260505082553 | 12 | 149 | 1.6 | 3.2 | 0.00 | 0.00 | 0.00 | 79 | 1015.3 |
| 20260505082101 | 12 | 149 | 0.0 | 3.2 | 0.00 | 0.00 | 0.00 | 78 | 1015.2 |
| 20260505081102 | 12 | 149 | 0.0 | 4.8 | 0.00 | 0.00 | 0.00 | 78 | 1015.2 |
| 20260505080553 | 12 | 150 | 0.0 | 4.8 | 0.00 | 0.00 | 0.00 | 79 | 1015.3 |
| 20260505075549 | 11 | 123 | 0.0 | 0.0 | 0.00 | 0.00 | 0.00 | 81 | 1015.2 |
| 20260505075059 | 11 | 123 | 0.0 | 0.0 | 0.00 | 0.00 | 0.00 | 81 | 1015.2 |
| 20260505074549 | 11 | 122 | 0.0 | 0.0 | 0.00 | 0.00 | 0.00 | 81 | 1015.1 |
| 20260505074100 | 11 | 122 | 0.0 | 0.0 | 0.00 | 0.00 | 0.00 | 81 | 1015.0 |
| 20260505073550 | 11 | 122 | 0.0 | 0.0 | 0.00 | 0.00 | 0.00 | 80 | 1015.1 |
| 20260505073059 | 11 | 122 | 0.0 | 0.0 | 0.00 | 0.00 | 0.00 | 80 | 1015.1 |
| 20260505072603 | 11 | 122 | 0.0 | 0.0 | 0.00 | 0.00 | 0.00 | 80 | 1015.1 |
| 20260505072047 | 12 | 122 | 0.0 | 0.0 | 0.00 | 0.00 | 0.00 | 80 | 1015.1 |
| 20260505071601 | 12 | 122 | 0.0 | 0.0 | 0.00 | 0.00 | 0.00 | 80 | 1015.1 |
| 20260505071049 | 12 | 122 | 0.0 | 0.0 | 0.00 | 0.00 | 0.00 | 80 | 1015.0 |
| 20260505070558 | 12 | 122 | 0.0 | 0.0 | 0.00 | 0.00 | 0.00 | 79 | 1015.0 |
| 20260505070105 | 12 | 122 | 0.0 | 0.0 | 0.00 | 0.00 | 0.00 | 79 | 1014.9 |
| 20260505065056 | 12 | 122 | 0.0 | 0.0 | 0.00 | 0.00 | 0.00 | 78 | 1015.0 |
| 20260505064549 | 12 | 122 | 0.0 | 0.0 | 0.00 | 0.00 | 0.00 | 77 | 1014.9 |
| 20260505064100 | 13 | 122 | 0.0 | 1.6 | 0.00 | 0.00 | 0.00 | 76 | 1014.9 |
| 20260505063102 | 13 | 122 | 0.0 | 3.2 | 0.00 | 0.00 | 0.00 | 72 | 1015.0 |
| 20260505062548 | 14 | 122 | 0.0 | 0.0 | 0.00 | 0.00 | 0.00 | 71 | 1015.0 |
| 20260505062051 | 14 | 122 | 0.0 | 0.0 | 0.00 | 0.00 | 0.00 | 67 | 1015.0 |
| 20260505061602 | 13 | 122 | 0.0 | 0.0 | 0.00 | 0.00 | 0.00 | 69 | 1015.1 |
| 20260505061051 | 13 | 122 | 0.0 | 0.0 | 0.00 | 0.00 | 0.00 | 74 | 1015.1 |
| 20260505060543 | 13 | 122 | 0.0 | 0.0 | 0.00 | 0.00 | 0.00 | 73 | 1015.2 |
| 20260505060054 | 14 | 122 | 0.0 | 0.0 | 0.00 | 0.00 | 0.00 | 71 | 1015.2 |
| 20260505055559 | 14 | 119 | 0.0 | 0.0 | 0.00 | 0.00 | 0.00 | 68 | 1015.2 |
| 20260505055049 | 13 | 119 | 0.0 | 0.0 | 0.00 | 0.00 | 0.00 | 70 | 1015.2 |
| 20260505054556 | 13 | 110 | 0.0 | 0.0 | 0.00 | 0.00 | 0.00 | 73 | 1015.2 |
| 20260505054101 | 13 | 110 | 0.0 | 0.0 | 0.00 | 0.00 | 0.00 | 74 | 1015.2 |
| 20260505053552 | 13 | 110 | 0.0 | 0.0 | 0.00 | 0.00 | 0.00 | 75 | 1015.3 |
| 20260505053100 | 13 | 110 | 0.0 | 0.0 | 0.00 | 0.00 | 0.00 | 74 | 1015.3 |
| 20260505052550 | 13 | 95 | 0.0 | 0.0 | 0.00 | 0.00 | 0.00 | 73 | 1015.3 |
| 20260505052056 | 13 | 95 | 0.0 | 0.0 | 0.00 | 0.00 | 0.00 | 76 | 1015.3 |
| 20260505051547 | 13 | 95 | 0.0 | 0.0 | 0.00 | 0.00 | 0.00 | 75 | 1015.3 |
| 20260505051100 | 13 | 95 | 0.0 | 0.0 | 0.00 | 0.00 | 0.00 | 75 | 1015.2 |
| 20260505050554 | 13 | 95 | 0.0 | 0.0 | 0.00 | 0.00 | 0.00 | 73 | 1015.2 |
| 20260505041559 | 15 | 95 | 0.0 | 0.0 | 0.00 | 0.00 | 0.00 | 69 | 1015.2 |
| 20260505041047 | 15 | 95 | 0.0 | 0.0 | 0.00 | 0.00 | 0.00 | 66 | 1015.3 |
| 20260505040557 | 15 | 95 | 0.0 | 0.0 | 0.00 | 0.00 | 0.00 | 66 | 1015.3 |
| 20260505040135 | 15 | 95 | 0.0 | 0.0 | 0.00 | 0.00 | 0.00 | 66 | 1015.2 |
| 20260505035549 | 15 | 95 | 0.0 | 0.0 | 0.00 | 0.00 | 0.00 | 66 | 1015.2 |
| 20260505035056 | 15 | 95 | 0.0 | 0.0 | 0.00 | 0.00 | 0.00 | 66 | 1015.2 |
| 20260505034605 | 16 | 95 | 0.0 | 0.0 | 0.00 | 0.00 | 0.00 | 66 | 1015.2 |
| 20260505034052 | 16 | 95 | 0.0 | 0.0 | 0.00 | 0.00 | 0.00 | 65 | 1015.3 |
| 20260505033601 | 16 | 95 | 0.0 | 0.0 | 0.00 | 0.00 | 0.00 | 63 | 1015.4 |
| 20260505033048 | 16 | 95 | 0.0 | 0.0 | 0.00 | 0.00 | 0.00 | 65 | 1015.4 |
| 20260505032552 | 16 | 95 | 0.0 | 0.0 | 0.00 | 0.00 | 0.00 | 65 | 1015.4 |
| 20260505032101 | 16 | 95 | 0.0 | 0.0 | 0.00 | 0.00 | 0.00 | 64 | 1015.4 |
| 20260505031551 | 16 | 95 | 0.0 | 0.0 | 0.00 | 0.00 | 0.00 | 63 | 1015.3 |
| 20260505030555 | 16 | 95 | 0.0 | 1.6 | 0.00 | 0.00 | 0.00 | 64 | 1015.4 |
| 20260505030507 | 16 | 95 | 0.0 | 1.6 | 0.00 | 0.00 | 0.00 | 64 | 1014.9 |
| 20260505030133 | 16 | 95 | 0.0 | 1.6 | 0.00 | 0.00 | 0.00 | 63 | 1015.4 |
| 20260505030034 | 16 | 95 | 0.0 | 1.6 | 0.00 | 0.00 | 0.00 | 63 | 1014.9 |
| 20260505025553 | 16 | 95 | 0.0 | 1.6 | 0.00 | 0.00 | 0.00 | 62 | 1015.4 |
| 20260505025055 | 17 | 95 | 0.0 | 1.6 | 0.00 | 0.00 | 0.00 | 62 | 1015.3 |
| 20260505024548 | 17 | 95 | 0.0 | 1.6 | 0.00 | 0.00 | 0.00 | 61 | 1015.4 |
| 20260505023548 | 18 | 95 | 0.0 | 1.6 | 0.00 | 0.00 | 0.00 | 58 | 1015.4 |
| 20260505023057 | 18 | 95 | 0.0 | 1.6 | 0.00 | 0.00 | 0.00 | 58 | 1015.3 |
| 20260505022602 | 18 | 95 | 0.0 | 3.2 | 0.00 | 0.00 | 0.00 | 57 | 1015.2 |
| 20260505022052 | 18 | 95 | 0.0 | 3.2 | 0.00 | 0.00 | 0.00 | 57 | 1015.2 |
| 20260505021558 | 18 | 95 | 0.0 | 1.6 | 0.00 | 0.00 | 0.00 | 57 | 1015.3 |
| 20260505020559 | 18 | 95 | 0.0 | 3.2 | 0.00 | 0.00 | 0.00 | 57 | 1015.3 |
| 20260505020052 | 18 | 95 | 0.0 | 3.2 | 0.00 | 0.00 | 0.00 | 58 | 1015.2 |
| 20260505015555 | 17 | 179 | 0.0 | 3.2 | 0.00 | 0.00 | 0.00 | 59 | 1015.2 |
| 20260505015044 | 17 | 179 | 1.6 | 3.2 | 0.00 | 0.00 | 0.00 | 60 | 1015.0 |
| 20260505014558 | 17 | 179 | 0.0 | 0.0 | 0.00 | 0.00 | 0.00 | 59 | 1015.0 |
| 20260505014046 | 18 | 179 | 0.0 | 0.0 | 0.00 | 0.00 | 0.00 | 58 | 1015.0 |
| 20260505013552 | 18 | 179 | 0.0 | 0.0 | 0.00 | 0.00 | 0.00 | 57 | 1015.0 |
| 20260505013100 | 18 | 179 | 0.0 | 0.0 | 0.00 | 0.00 | 0.00 | 56 | 1014.9 |
| 20260505012545 | 18 | 179 | 0.0 | 0.0 | 0.00 | 0.00 | 0.00 | 55 | 1014.9 |
| 20260505012055 | 19 | 179 | 0.0 | 0.0 | 0.00 | 0.00 | 0.00 | 53 | 1014.9 |
| 20260505011546 | 19 | 179 | 0.0 | 0.0 | 0.00 | 0.00 | 0.00 | 53 | 1014.8 |
| 20260505010550 | 20 | 179 | 0.0 | 0.0 | 0.00 | 0.00 | 0.00 | 49 | 1014.7 |
| 20260505010056 | 21 | 179 | 0.0 | 1.6 | 0.00 | 0.00 | 0.00 | 48 | 1014.6 |
| 20260505005558 | 21 | 179 | 0.0 | 1.6 | 0.00 | 0.00 | 0.00 | 47 | 1014.7 |
| 20260505005048 | 21 | 179 | 0.0 | 4.8 | 0.00 | 0.00 | 0.00 | 46 | 1014.6 |
| 20260505004558 | 21 | 179 | 1.6 | 6.4 | 0.00 | 0.00 | 0.00 | 46 | 1014.6 |
| 20260505003558 | 21 | 175 | 3.2 | 9.7 | 0.00 | 0.00 | 0.00 | 45 | 1014.4 |
| 20260505002550 | 22 | 167 | 0.0 | 1.6 | 0.00 | 0.00 | 0.00 | 44 | 1014.3 |
| 20260505002059 | 22 | 167 | 0.0 | 3.2 | 0.00 | 0.00 | 0.00 | 44 | 1014.2 |
| 20260505001607 | 22 | 167 | 0.0 | 3.2 | 0.00 | 0.00 | 0.00 | 43 | 1014.3 |
| 20260505001053 | 22 | 166 | 1.6 | 3.2 | 0.00 | 0.00 | 0.00 | 44 | 1014.2 |
| 20260505000559 | 22 | 166 | 1.6 | 3.2 | 0.00 | 0.00 | 0.00 | 43 | 1014.2 |
| 20260504235558 | 23 | 180 | 0.0 | 4.8 | 0.00 | 0.00 | 0.00 | 41 | 1014.1 |